Flag for U.S.A. Weather past 2 weeks in Victorville, California, U.S.A.

Now
73 °F

Passing clouds.


Feels Like: 76 °F
Forecast: 73 / 93 °F
Wind: No wind

Location: George Air Force Base / Victorvi

Current Time: Jul 1, 2015 at 6:25:12 AM

Latest Report: Jul 1, 2015 at 5:55 AM


Visibility: 10 mi

Pressure: 30.06 "Hg

Humidity: 69%

Dew point: 63 °F

Location of VictorvilleLocation

Historic Weather in Victorville — Graph

°F

Victorville temperature yesterday

Maximum temperature yesterday: 104 °F (at 1:55 PM)
Minimum temperature yesterday: 73 °F (at 4:15 AM)
Average temperature yesterday: 87 °F

Past Weeks' High & Low Weather Summary

 TemperatureHumidityPressure
High108 °F (Jun 20, 3:35 PM)69% (Jul 1, 4:55 AM)30.09 "Hg (Jul 1, 4:55 AM)
Low59 °F (Jun 17, 5:55 AM)3% (Jun 20, 2:55 PM)29.85 "Hg (Jun 20, 4:35 PM)
Average85 °F17%29.98 "Hg
* Reported Jun 16 5:15 AM — Jul 1 5:15 AM, Victorville, Weather by CustomWeather, © 2015

Note: Actual official high and low records may vary slightly from our data, if they occured in-between our weather recording intervals... More about our weather records

Advertising

Victorville weather history for previous 24 hours

 ConditionsComfort  
Time TempWeatherWind HumidityBarometerVisibility
5:15 AM
Wed, Jul 1
73 °FPassing clouds.12 mph69%30.03 "Hg10 mi
4:55 AM73 °FPassing clouds.No wind69%30.06 "Hg10 mi
4:15 AM75 °FLight rain. Overcast.9 mph61%30.06 "Hg10 mi
3:55 AM79 °FLight rain. Mostly cloudy.No wind45%30.04 "Hg10 mi
3:15 AM81 °FLight rain. Partly cloudy.17 mph32%29.98 "Hg10 mi
2:55 AM81 °FPassing clouds.13 mph32%29.97 "Hg5 mi
2:35 AM81 °FClear.10 mph32%29.93 "Hg10 mi
2:15 AM79 °FClear.8 mph32%29.92 "Hg10 mi
1:55 AM79 °FClear.No wind34%29.93 "Hg10 mi
1:35 AM79 °FClear.No wind34%29.93 "Hg10 mi
1:15 AM79 °FClear.3 mph34%29.93 "Hg10 mi
12:55 AM81 °FClear.No wind32%29.94 "Hg10 mi
12:35 AM81 °FClear.10 mph32%29.94 "Hg10 mi
12:15 AM82 °FClear.No wind30%29.95 "Hg10 mi
11:55 PM
Tue, Jun 30
81 °FClear.No wind30%29.95 "Hg10 mi
11:35 PM82 °FClear.No wind28%29.95 "Hg10 mi
11:15 PM81 °FClear.No wind30%29.95 "Hg10 mi
10:55 PM81 °FClear.No wind26%29.96 "Hg10 mi
10:15 PM81 °FClear.No wind26%29.97 "Hg10 mi
9:55 PM81 °FClear.No wind26%29.97 "Hg10 mi
9:15 PM82 °FClear.No wind26%29.96 "Hg10 mi
8:55 PM82 °FSunny.No wind26%29.96 "Hg10 mi
8:15 PM84 °FSunny.10 mph27%29.96 "Hg10 mi
7:55 PM88 °FSunny.No wind24%29.95 "Hg10 mi
7:15 PM88 °FSunny.No wind25%29.94 "Hg10 mi
5:15 PM90 °FSunny.23 mph24%29.93 "Hg10 mi
4:55 PM88 °FSunny.26 mph27%29.94 "Hg7 mi
4:35 PM91 °FSunny.28 mph24%29.96 "Hg5 mi
4:15 PM95 °FSunny.36 mph22%29.94 "Hg7 mi
3:55 PM99 °FSunny.32 mph15%29.94 "Hg10 mi
3:35 PM99 °FSunny.23 mph15%29.93 "Hg10 mi
3:15 PM100 °FSunny.24 mph14%29.93 "Hg10 mi
2:55 PM100 °FSunny.24 mph14%29.94 "Hg10 mi
2:35 PM99 °FSunny.22 mph15%29.95 "Hg10 mi
2:15 PM102 °FSunny.20 mph13%29.95 "Hg10 mi
1:55 PM104 °FSunny.21 mph12%29.96 "Hg10 mi
1:15 PM102 °FSunny.18 mph13%29.96 "Hg10 mi
12:55 PM102 °FSunny.12 mph13%29.97 "Hg10 mi
12:35 PM100 °FSunny.No wind14%29.97 "Hg10 mi
11:55 AM99 °FSunny.No wind16%29.98 "Hg10 mi
11:35 AM99 °FSunny.No wind16%29.99 "Hg10 mi
11:15 AM97 °FSunny.No wind19%30.00 "Hg10 mi
10:55 AM95 °FSunny.No wind20%30.00 "Hg10 mi
9:55 AM91 °FSunny.No wind23%30.00 "Hg10 mi
9:35 AM90 °FSunny.No wind24%30.00 "Hg10 mi
9:15 AM90 °FSunny.No wind24%30.00 "Hg10 mi
8:55 AM90 °FSunny.No wind24%30.01 "Hg10 mi
7:55 AM84 °FSunny.No wind31%30.01 "Hg10 mi
7:35 AM82 °FSunny.No wind32%30.00 "Hg5 mi
7:15 AM81 °FSunny.No wind32%30.00 "Hg10 mi
6:55 AM79 °FSunny.No wind34%30.00 "Hg10 mi
Weather by CustomWeather, © 2015

See weather overviewHow to use our weather pages